This is the latest recevied weather packets stored in our database for station/object HB9CJD-1. If no packets are shown the sender has not sent any weather packets the latest 10 day(s).
| Time | Temp. | Humidity | Pressure | Rain* | Wind** | Luminosity | Snow |
|---|---|---|---|---|---|---|---|
| 1777467910 | 21.67° C | 40% | 1020.2 hPa | - | - | - | - |
| 1777467307 | 21.67° C | 42% | 1020.2 hPa | - | - | - | - |
| 1777467307 | 21.67° C | 42% | 1020.2 hPa | - | - | - | - |
| 1777466704 | 20.56° C | 44% | 1020.2 hPa | - | - | - | - |
| 1777466704 | 20.56° C | 44% | 1020.2 hPa | - | - | - | - |
| 1777466101 | 20° C | 42% | 1020.2 hPa | - | - | - | - |
| 1777466100 | 20° C | 42% | 1020.2 hPa | - | - | - | - |
| 1777465497 | 20° C | 44% | 1020.3 hPa | - | - | - | - |
| 1777465497 | 20° C | 44% | 1020.3 hPa | - | - | - | - |
| 1777464894 | 20.56° C | 48% | 1020.3 hPa | - | - | - | - |
| 1777464894 | 20.56° C | 48% | 1020.3 hPa | - | - | - | - |
| 1777464291 | 20° C | 47% | 1020.3 hPa | - | - | - | - |
| 1777464291 | 20° C | 47% | 1020.3 hPa | - | - | - | - |
| 1777463688 | 19.44° C | 50% | 1020.3 hPa | - | - | - | - |
| 1777463687 | 19.44° C | 50% | 1020.3 hPa | - | - | - | - |
| 1777463084 | 18.89° C | 50% | 1020.4 hPa | - | - | - | - |
| 1777463084 | 18.89° C | 50% | 1020.4 hPa | - | - | - | - |
| 1777462481 | 17.22° C | 53% | 1020.6 hPa | - | - | - | - |
| 1777462481 | 17.22° C | 53% | 1020.6 hPa | - | - | - | - |
| 1777461878 | 16.67° C | 56% | 1020.6 hPa | - | - | - | - |
| 1777461878 | 16.67° C | 56% | 1020.6 hPa | - | - | - | - |
| 1777461275 | 16.67° C | 55% | 1020.7 hPa | - | - | - | - |
| 1777461274 | 16.67° C | 55% | 1020.7 hPa | - | - | - | - |
| 1777460671 | 16.67° C | 55% | 1020.5 hPa | - | - | - | - |
| 1777460069 | 15.56° C | 58% | 1020.7 hPa | - | - | - | - |
* Rain since midnight (hover to see other rain measurements)
** Current wind speed in m/s (hover to see current wind gust speed)